sat.trackr.live / text

‹ back to catalog

STARLINK-33912

NORAD 64107 · 2025-110M

PAYLOAD ACTIVE UNKNOWN

§ Identity

Operator
Country
US
Launch date
2025-05-23
Launch site
AFWTR
Launch vehicle
Mass (kg)
RCS (m²)

Purposes: comms

External: N2YO · Heavens-Above · Gunter

§ Orbital elements

Epoch: 2026-05-24T23:14:57.310368Z

Period
94.01 min
Inclination
53.1599°
Eccentricity
0.0001164
Mean motion
15.31708230 rev/d
Perigee alt
469.9 km
Apogee alt
471.5 km
Semi-major
6,848.9 km
B*
5.7657e-4
RAAN
32.2785°
Arg perigee
81.0167°
Mean anomaly
279.0966°
Rev number
5,756

§ Raw data

STARLINK-339121 64107U 25110M   26144.96871887  .00017573  00000+0  57657-3 0  99932 64107  53.1599  32.2785 0001164  81.0167 279.0966 15.31708230 57566

JSON: /api/v1/satellites/64107 · /tle

For live sub-satellite position, see the globe view (requires WebGL).

§ Visibility from observer

Set your observer location to see the next 7 days of passes ≥ 10°. The values pass through the URL so the page stays shareable.

No JS? Fill the form by hand. The geolocation button needs JavaScript.